Swansboro, NC

8:05 AM EST on November 22, 2017 (GMT -0500)
Bogue McAlf

Weather History for KNJM - February, 2013

Change the Weather History Date:

Sunday, February 3, 2013

  Actual Average (KNKT) Record (KNKT)
Temperature  
Mean Temperature 43 °F -  
Max Temperature 53 °F 53 °F 73 °F (2016)
Min Temperature 33 °F 34 °F 19 °F (2000)
Degree Days  
Heating Degree Days 22    
Moisture  
Dew Point 31 °F    
Average Humidity 65    
Maximum Humidity 86    
Minimum Humidity 37    
Precipitation  
Precipitation 0.00 in - - ()
Sea Level Pressure  
Sea Level Pressure 29.96 in    
Wind  
Wind Speed 5 mph (WNW)    
Max Wind Speed 14 mph    
Max Gust Speed 21 mph    
Visibility 10 miles    
Events      
Averages and records for this station are not official NWS values.
T = Trace of Precipitation, MM = Missing Value Source: NWS Daily Summary

Daily Weather History Graph

Daily Weather History Graph

Search for Another Location

Airport or City:

Trip Planner

Search our weather history database for the weather conditions in past years. The results will help you decide how hot, cold, wet, or windy it might be!

Date:

Astronomy

Feb. 03, 2013 Rise Set
Actual Time 7:04 AM EST 5:39 PM EST
Civil Twilight 6:38 AM EST 6:06 PM EST
Nautical Twilight 6:08 AM EST 6:36 PM EST
Astronomical Twilight 5:38 AM EST 7:05 PM EST
Moon 12:29 AM EST (2/3) 11:16 AM EST (2/3)
Length of Visible Light 11h 27m
Length of Day
10h 35m
Waning Gibbous, 49% of the Moon is Illuminated
Feb 3
Waning Gibbous
Feb 10
New
Feb 17
First Quarter
Feb 25
Full
Mar 4
Last Quarter

Hourly Weather History & Observations

Time (EST) Temp. Windchill Dew Point Humidity Pressure Visibility Wind Dir Wind Speed Gust Speed Precip Events Conditions
12:57 AM 46.9 °F - 37.9 °F 71% 30.04 in 10.0 mi NW 6.9 mph - N/A   Mostly Cloudy
1:57 AM 44.1 °F 42.5 °F 36.0 °F 73% 30.01 in 10.0 mi WNW 3.5 mph - N/A   Mostly Cloudy
2:57 AM 44.1 °F 42.5 °F 36.0 °F 73% 30.01 in 10.0 mi Variable 3.5 mph - N/A   Overcast
3:57 AM 43.0 °F 41.3 °F 35.1 °F 74% 29.98 in 10.0 mi Variable 3.5 mph - N/A   Partly Cloudy
4:57 AM 39.9 °F - 33.1 °F 77% 29.97 in 10.0 mi Calm Calm - N/A   Clear
5:57 AM 37.0 °F 34.5 °F 32.0 °F 82% 29.97 in 10.0 mi WSW 3.5 mph - N/A   Clear
6:57 AM 37.9 °F 35.5 °F 34.0 °F 86% 29.97 in 10.0 mi WNW 3.5 mph - N/A   Mostly Cloudy
7:57 AM 39.9 °F 37.8 °F 35.1 °F 83% 29.98 in 10.0 mi West 3.5 mph - N/A   Mostly Cloudy
8:57 AM 43.0 °F 38.8 °F 35.1 °F 74% 29.99 in 10.0 mi WNW 6.9 mph - N/A   Clear
9:57 AM 46.9 °F - 36.0 °F 66% 29.98 in 10.0 mi NNW 9.2 mph - N/A   Partly Cloudy
10:57 AM 48.0 °F - 32.0 °F 54% 29.96 in 10.0 mi North 8.1 mph 16.1 mph N/A   Scattered Clouds
11:57 AM 48.9 °F - 30.9 °F 50% 29.95 in 10.0 mi WNW 12.7 mph 17.3 mph N/A   Mostly Cloudy
12:57 PM 48.9 °F - 30.0 °F 48% 29.91 in 10.0 mi NW 9.2 mph - N/A   Mostly Cloudy
1:57 PM 53.1 °F - 30.0 °F 41% 29.88 in 10.0 mi West 12.7 mph 17.3 mph N/A   Mostly Cloudy
2:57 PM 50.0 °F - 28.0 °F 43% 29.88 in 10.0 mi WNW 6.9 mph - N/A   Mostly Cloudy
3:57 PM 52.0 °F - 26.1 °F 37% 29.90 in 10.0 mi WNW 13.8 mph 20.7 mph N/A   Partly Cloudy
4:57 PM 51.1 °F - 27.0 °F 39% 29.92 in 10.0 mi WNW 9.2 mph 18.4 mph N/A   Clear
5:57 PM 46.0 °F - 28.0 °F 50% 29.92 in 10.0 mi Calm Calm - N/A   Clear
6:57 PM 39.0 °F - 28.9 °F 67% 29.94 in 10.0 mi Calm Calm - N/A   Clear
7:57 PM 37.0 °F - 28.0 °F 70% 29.96 in 10.0 mi Calm Calm - N/A   Clear
8:57 PM 35.1 °F - 28.9 °F 78% 29.97 in 10.0 mi Calm Calm - N/A   Clear
9:57 PM 34.0 °F - 28.0 °F 79% 29.98 in 10.0 mi Calm Calm - N/A   Clear
10:57 PM 33.1 °F 30.0 °F 28.0 °F 82% 30.00 in 10.0 mi NW 3.5 mph - N/A   Partly Cloudy
11:57 PM 39.9 °F 36.7 °F 27.0 °F 60% 30.01 in 10.0 mi North 4.6 mph - N/A   Clear